Annette Island, AK

10:22 PM AKST on December 11, 2017 (GMT -0900)
Annette Island

Weather History for PANT - December, 2012

Change the Weather History Date:

Tuesday, December 25, 2012

  Actual Average Record
Temperature  
Mean Temperature 37 °F 37 °F  
Max Temperature 38 °F 41 °F 55 °F (2009)
Min Temperature 35 °F 33 °F 10 °F (1955)
Degree Days  
Heating Degree Days 28 28  
Month to date heating degree days 740 693  
Since 1 July heating degree days 2870 2743  
Cooling Degree Days 0    
Month to date cooling degree days 0  
Year to date cooling degree days 7  
Moisture  
Dew Point 21 °F    
Average Humidity 0    
Maximum Humidity 0    
Minimum Humidity 0    
Precipitation  
Precipitation T in 0.33 in 1.69 in (2013)
Month to date precipitation 7.47 8.72  
Year to date precipitation 102.58 99.63  
Snow  
Snow T in 0.30 in 8.80 in (1951)
Month to date snowfall 10.9 6.2  
Since 1 July snowfall 10.9 9.8  
Snow Depth 3.00 in    
Sea Level Pressure  
Sea Level Pressure 29.73 in    
Wind  
Wind Speed 6 mph (ENE)    
Max Wind Speed 16 mph    
Max Gust Speed 25 mph    
Visibility 10 miles    
Events      
T = Trace of Precipitation, MM = Missing Value Source: NWS Daily Summary

Daily Weather History Graph

Daily Weather History Graph

Search for Another Location

Airport or City:

Trip Planner

Search our weather history database for the weather conditions in past years. The results will help you decide how hot, cold, wet, or windy it might be!

Date:

Astronomy

Dec. 25, 2012 Rise Set
Actual Time 8:11 AM AKST 3:22 PM AKST
Civil Twilight 7:25 AM AKST 4:07 PM AKST
Nautical Twilight 6:38 AM AKST 4:55 PM AKST
Astronomical Twilight 5:53 AM AKST 5:39 PM AKST
Moon 1:42 PM AKST (12/25) 5:41 AM AKST (12/25)
Length of Visible Light 8h 42m
Length of Day
7h 10m
Waxing Gibbous, 94% of the Moon is Illuminated
Dec 25
Waxing Gibbous
Dec 28
Full
Jan 4
Last Quarter
Jan 11
New
Jan 18
First Quarter

Hourly Weather History & Observations

Time (AKST) Temp. Windchill Dew Point Humidity Pressure Visibility Wind Dir Wind Speed Gust Speed Precip Events Conditions
12:53 AM 37.9 °F 33.5 °F 19.9 °F 48% 29.83 in 10.0 mi East 5.8 mph 23.0 mph N/A   Overcast
1:53 AM 37.0 °F 33.3 °F 19.9 °F 50% 29.81 in 10.0 mi Variable 4.6 mph - N/A   Overcast
3:53 AM 36.0 °F 29.0 °F 21.0 °F 55% 29.80 in 10.0 mi ENE 9.2 mph - N/A   Overcast
4:53 AM 37.0 °F 32.4 °F 21.0 °F 52% 29.78 in 10.0 mi ENE 5.8 mph - N/A   Overcast
5:53 AM 36.0 °F 33.3 °F 25.0 °F 64% 29.77 in 10.0 mi Variable 3.5 mph - N/A   Overcast
6:53 AM 36.0 °F 29.0 °F 25.0 °F 64% 29.75 in 10.0 mi ENE 9.2 mph 19.6 mph N/A   Overcast
7:53 AM 36.0 °F 29.0 °F 26.1 °F 67% 29.75 in 10.0 mi ENE 9.2 mph - N/A   Overcast
8:53 AM 37.0 °F 32.4 °F 24.1 °F 59% 29.75 in 10.0 mi ENE 5.8 mph - N/A   Overcast
9:53 AM 37.0 °F 34.5 °F 25.0 °F 62% 29.75 in 10.0 mi Variable 3.5 mph - N/A   Overcast
10:53 AM 37.0 °F 32.4 °F 25.0 °F 62% 29.75 in 10.0 mi Variable 5.8 mph - 0.00 in   Overcast
11:53 AM 37.9 °F 31.5 °F 21.9 °F 53% 29.73 in 10.0 mi ENE 9.2 mph - N/A   Overcast
12:53 PM 37.9 °F 32.1 °F 21.9 °F 53% 29.71 in 10.0 mi ENE 8.1 mph 19.6 mph N/A   Overcast
1:53 PM 37.9 °F 32.1 °F 21.0 °F 51% 29.69 in 10.0 mi ENE 8.1 mph 20.7 mph N/A   Overcast
2:53 PM 37.9 °F 30.9 °F 19.0 °F 47% 29.68 in 10.0 mi ENE 10.4 mph 18.4 mph N/A   Overcast
3:53 PM 37.9 °F 31.5 °F 18.0 °F 45% 29.68 in 10.0 mi ENE 9.2 mph 17.3 mph N/A   Overcast
4:53 PM 37.0 °F 31.0 °F 18.0 °F 46% 29.68 in 10.0 mi ENE 8.1 mph - N/A   Clear
5:53 PM 36.0 °F 31.1 °F 17.1 °F 46% 29.68 in 10.0 mi Variable 5.8 mph - N/A   Clear
6:53 PM 35.1 °F - 17.1 °F 48% 29.69 in 10.0 mi Calm Calm - N/A   Partly Cloudy
7:53 PM 35.1 °F 31.0 °F 18.0 °F 50% 29.70 in 10.0 mi ENE 4.6 mph - N/A   Scattered Clouds
8:53 PM 34.0 °F - 17.1 °F 50% 29.70 in 10.0 mi Calm Calm - N/A   Clear
9:53 PM 28.0 °F - 19.9 °F 72% 29.71 in 10.0 mi Calm Calm - N/A   Clear
10:53 PM 28.9 °F 25.2 °F 19.9 °F 69% 29.72 in 10.0 mi Variable 3.5 mph - N/A   Clear
11:53 PM 32.0 °F - 17.1 °F 54% 29.73 in 10.0 mi Calm Calm - N/A   Clear